Flag for U.S.A. Weather past 2 weeks in Baltimore, Maryland, U.S.A.

Now
83 °F

Scattered clouds.


Feels Like: 88 °F
Forecast: 71 / 89 °F
Wind: No wind

Location: Baltimore-Washington International Airport

Current Time: Jul 28, 2015 at 11:59:42 AM

Latest Report: Jul 28, 2015 at 10:54 AM


Visibility: 6 mi

Pressure: 30.01 "Hg

Humidity: 68%

Dew point: 71 °F

Location of BaltimoreLocation

Historic Weather in Baltimore — Graph

°F

Baltimore temperature yesterday

Maximum temperature yesterday: 84 °F (at 3:54 PM)
Minimum temperature yesterday: 72 °F (at 4:54 AM)
Average temperature yesterday: 78 °F

Past Weeks' High & Low Weather Summary

 TemperatureHumidityPressure
High96 °F (Jul 19, 4:54 PM)97% (Jul 28, 12:54 AM)30.09 "Hg (Jul 28, 12:54 AM)
Low61 °F (Jul 24, 5:54 AM)28% (Jul 24, 10:54 AM)29.53 "Hg (Jul 14, 6:54 PM)
Average78 °F67%29.87 "Hg
* Reported Jul 13 10:54 AM — Jul 28 10:54 AM, Baltimore, Weather by CustomWeather, © 2015

Note: Actual official high and low records may vary slightly from our data, if they occured in-between our weather recording intervals... More about our weather records

Advertising

Baltimore weather history for previous 24 hours

 ConditionsComfort  
Time TempWeatherWind HumidityBarometerVisibility
10:54 AM
Tue, Jul 28
83 °FScattered clouds.No wind68%30.01 "Hg6 mi
10:04 AM81 °FBroken clouds.7 mph79%30.01 "Hg4 mi
9:54 AM80 °FBroken clouds.5 mph79%30.01 "Hg3 mi
8:54 AM77 °FFog.5 mph90%30.01 "Hg2 mi
7:54 AM75 °FFog.No wind94%30.01 "Hg4 mi
6:54 AM73 °FFog.No wind97%30.00 "Hg4 mi
5:54 AM73 °FFog.No wind94%29.99 "Hg4 mi
4:54 AM73 °FFog.No wind97%29.99 "Hg5 mi
4:01 AM73 °FFog.No wind94%30.00 "Hg6 mi
3:00 AM73 °FFog.No wind94%30.01 "Hg6 mi
1:54 AM75 °FPassing clouds.No wind94%30.00 "Hg7 mi
12:54 AM74 °FPassing clouds.No wind97%30.00 "Hg7 mi
11:54 PM
Mon, Jul 27
74 °FPassing clouds.No wind94%30.01 "Hg8 mi
10:54 PM76 °FPassing clouds.No wind94%30.00 "Hg8 mi
9:54 PM78 °FPassing clouds.No wind87%29.99 "Hg9 mi
8:54 PM79 °FScattered clouds.No wind84%29.98 "Hg9 mi
7:54 PM81 °FScattered clouds.No wind77%29.97 "Hg10 mi
6:54 PM82 °FScattered clouds.6 mph74%29.95 "Hg9 mi
5:54 PM83 °FBroken clouds.6 mph68%29.95 "Hg7 mi
4:54 PM83 °FBroken clouds.9 mph70%29.96 "Hg7 mi
3:54 PM84 °FCloudy.7 mph65%29.96 "Hg7 mi
2:54 PM83 °FMostly cloudy.3 mph68%29.98 "Hg7 mi
1:54 PM82 °FMostly cloudy.5 mph70%29.99 "Hg10 mi
12:54 PM81 °FMostly cloudy.5 mph69%29.99 "Hg10 mi
11:54 AM81 °FCloudy.No wind69%30.00 "Hg10 mi
Weather by CustomWeather, © 2015

See weather overviewHow to use our weather pages